DAL9381 KJAC-KSLC

Flight info

Callsign DAL9381
Flight time 0h 32m
Altitude 26000
Route ALPIN5 KICNE LHO CARTR1
Aircraft B739/M-SDE2E3FGHIRWXY/LB1

Departure

Time 2026-05-08 05:49
Airport Jackson Hole Airport (KJAC)

Arrival

Time 2026-05-08 06:22
Airport Salt Lake City International Airport (KSLC)
Time Latitude Longitude Altitude Speed Heading
2026-05-08 05:19 43.60424 -110.73669 6426 ft 0 kts 110°
2026-05-08 05:42 43.60431 -110.73693 6425 ft 4 kts 110°
2026-05-08 05:42 43.60439 -110.73724 6425 ft 4 kts 101°
2026-05-08 05:42 43.60436 -110.73753 6425 ft 4 kts 40°
2026-05-08 05:42 43.60416 -110.73769 6428 ft 1 kts 19°
2026-05-08 05:43 43.60411 -110.73771 6427 ft 0 kts 19°
2026-05-08 05:45 43.60452 -110.73752 6427 ft 15 kts 19°
2026-05-08 05:45 43.60562 -110.73698 6428 ft 17 kts 19°
2026-05-08 05:45 43.60669 -110.73645 6428 ft 16 kts 19°
2026-05-08 05:45 43.60773 -110.73594 6427 ft 15 kts 19°
2026-05-08 05:46 43.60872 -110.73545 6427 ft 15 kts 19°
2026-05-08 05:46 43.60979 -110.73493 6430 ft 20 kts 19°
2026-05-08 05:46 43.61112 -110.73428 6427 ft 20 kts 19°
2026-05-08 05:46 43.61239 -110.73365 6428 ft 19 kts 20°
2026-05-08 05:47 43.61363 -110.73304 6429 ft 19 kts 19°
2026-05-08 05:47 43.61485 -110.73257 6428 ft 18 kts 353°
2026-05-08 05:47 43.61524 -110.73324 6429 ft 11 kts 290°
2026-05-08 05:47 43.61521 -110.73387 6427 ft 2 kts 224°
2026-05-08 05:48 43.61500 -110.73401 6427 ft 0 kts 197°
2026-05-08 05:48 43.61447 -110.73423 6427 ft 37 kts 198°
2026-05-08 05:48 43.60935 -110.73677 6427 ft 116 kts 200°
2026-05-08 05:48 43.59986 -110.74138 6486 ft 170 kts 199°
2026-05-08 05:49 43.58781 -110.74724 6946 ft 194 kts 200°
2026-05-08 05:49 43.57495 -110.75385 7716 ft 192 kts 201°
2026-05-08 05:49 43.56309 -110.76088 8765 ft 178 kts 205°
2026-05-08 05:49 43.55213 -110.76808 9472 ft 180 kts 209°
2026-05-08 05:50 43.53986 -110.77633 9507 ft 215 kts 210°
2026-05-08 05:50 43.52536 -110.78608 9524 ft 246 kts 208°
2026-05-08 05:50 43.51484 -110.79310 9701 ft 261 kts 208°
2026-05-08 05:50 43.49771 -110.80451 9974 ft 284 kts 208°
2026-05-08 05:51 43.47293 -110.82095 10278 ft 315 kts 208°
2026-05-08 05:51 43.45254 -110.83444 10618 ft 331 kts 208°
2026-05-08 05:51 43.43159 -110.84824 11293 ft 335 kts 208°
2026-05-08 05:51 43.41052 -110.86210 11963 ft 339 kts 208°
2026-05-08 05:52 43.39633 -110.87145 12393 ft 342 kts 208°
2026-05-08 05:52 43.37472 -110.88568 13038 ft 346 kts 208°
2026-05-08 05:52 43.35285 -110.90008 13718 ft 350 kts 209°
2026-05-08 05:52 43.33080 -110.91459 14348 ft 354 kts 209°
2026-05-08 05:53 43.30836 -110.92939 14839 ft 360 kts 210°
2026-05-08 05:53 43.27825 -110.94909 15596 ft 364 kts 210°
2026-05-08 05:53 43.25525 -110.96421 16116 ft 369 kts 211°
2026-05-08 05:53 43.23217 -110.97947 16688 ft 373 kts 211°
2026-05-08 05:54 43.21658 -110.98972 17029 ft 378 kts 211°
2026-05-08 05:54 43.19294 -111.00594 17540 ft 381 kts 213°
2026-05-08 05:54 43.16155 -111.02895 18274 ft 384 kts 215°
2026-05-08 05:54 43.14594 -111.04060 18587 ft 386 kts 215°
2026-05-08 05:55 43.12224 -111.05831 19036 ft 390 kts 215°
2026-05-08 05:55 43.09042 -111.08199 19619 ft 395 kts 214°
2026-05-08 05:55 43.07403 -111.09412 19934 ft 397 kts 214°
2026-05-08 05:55 43.04976 -111.11193 20442 ft 398 kts 214°
2026-05-08 05:56 43.02563 -111.12962 21006 ft 398 kts 214°
2026-05-08 05:56 43.00126 -111.14746 21555 ft 398 kts 214°
2026-05-08 05:56 42.97682 -111.16532 22121 ft 398 kts 214°
2026-05-08 05:56 42.95238 -111.18312 22695 ft 399 kts 214°
2026-05-08 05:57 42.92794 -111.20088 23311 ft 398 kts 214°
2026-05-08 05:57 42.90354 -111.21862 23883 ft 397 kts 214°
2026-05-08 05:57 42.87913 -111.23638 24397 ft 397 kts 214°
2026-05-08 05:57 42.85483 -111.25405 24921 ft 396 kts 214°
2026-05-08 05:58 42.83050 -111.27168 25447 ft 395 kts 214°
2026-05-08 05:58 42.80654 -111.28902 25948 ft 395 kts 215°
2026-05-08 05:58 42.78216 -111.30668 26002 ft 397 kts 214°
2026-05-08 05:58 42.75785 -111.32426 26009 ft 394 kts 215°
2026-05-08 05:59 42.73363 -111.34176 26008 ft 395 kts 215°
2026-05-08 05:59 42.70934 -111.35931 26007 ft 396 kts 215°
2026-05-08 05:59 42.68499 -111.37690 26002 ft 396 kts 215°
2026-05-08 05:59 42.66064 -111.39445 26001 ft 397 kts 215°
2026-05-08 06:00 42.63630 -111.41199 25995 ft 397 kts 215°
2026-05-08 06:00 42.61529 -111.42711 25995 ft 397 kts 215°
2026-05-08 06:00 42.59116 -111.44446 25994 ft 397 kts 215°
2026-05-08 06:00 42.56673 -111.46201 25983 ft 397 kts 215°
2026-05-08 06:01 42.54236 -111.47950 25970 ft 396 kts 214°
2026-05-08 06:01 42.51802 -111.49695 25971 ft 396 kts 214°
2026-05-08 06:01 42.49371 -111.51437 25972 ft 395 kts 214°
2026-05-08 06:01 42.46946 -111.53173 25981 ft 394 kts 214°
2026-05-08 06:02 42.44523 -111.54905 25965 ft 394 kts 214°
2026-05-08 06:02 42.42098 -111.56636 25973 ft 393 kts 214°
2026-05-08 06:02 42.39710 -111.58342 25981 ft 394 kts 214°
2026-05-08 06:02 42.37289 -111.60071 25979 ft 394 kts 214°
2026-05-08 06:03 42.34864 -111.61801 25975 ft 394 kts 214°
2026-05-08 06:03 42.32437 -111.63530 25954 ft 394 kts 214°
2026-05-08 06:03 42.30031 -111.65247 25957 ft 394 kts 214°
2026-05-08 06:03 42.27612 -111.66968 25973 ft 394 kts 214°
2026-05-08 06:04 42.25182 -111.68690 25948 ft 392 kts 214°
2026-05-08 06:04 42.22773 -111.70396 25985 ft 392 kts 214°
2026-05-08 06:04 42.20349 -111.72115 25988 ft 393 kts 214°
2026-05-08 06:04 42.17953 -111.73813 25968 ft 395 kts 214°
2026-05-08 06:05 42.15523 -111.75533 25975 ft 396 kts 214°
2026-05-08 06:05 42.13480 -111.76977 25845 ft 394 kts 214°
2026-05-08 06:05 42.11057 -111.78679 25592 ft 390 kts 214°
2026-05-08 06:05 42.08668 -111.80365 25339 ft 385 kts 213°
2026-05-08 06:06 42.06317 -111.82023 25101 ft 379 kts 213°
2026-05-08 06:06 42.03990 -111.83666 24870 ft 377 kts 213°
2026-05-08 06:06 42.01663 -111.85308 24643 ft 377 kts 213°
2026-05-08 06:06 41.99347 -111.86941 24431 ft 376 kts 213°
2026-05-08 06:07 41.97069 -111.88543 24135 ft 371 kts 213°
2026-05-08 06:07 41.94804 -111.90133 23774 ft 365 kts 213°
2026-05-08 06:07 41.92563 -111.91705 23362 ft 360 kts 213°
2026-05-08 06:07 41.90361 -111.93250 22933 ft 355 kts 213°
2026-05-08 06:08 41.88193 -111.94771 22525 ft 349 kts 213°
2026-05-08 06:08 41.86056 -111.96269 22147 ft 343 kts 213°
2026-05-08 06:08 41.83956 -111.97739 21766 ft 338 kts 213°
2026-05-08 06:08 41.81885 -111.99187 21390 ft 334 kts 213°
2026-05-08 06:09 41.79820 -112.00521 21020 ft 336 kts 205°
2026-05-08 06:09 41.77547 -112.01349 20729 ft 342 kts 193°
2026-05-08 06:09 41.75147 -112.01760 20388 ft 355 kts 191°
2026-05-08 06:09 41.72675 -112.02114 19991 ft 357 kts 190°
2026-05-08 06:10 41.70218 -112.02456 19569 ft 353 kts 190°
2026-05-08 06:10 41.67793 -112.02804 19176 ft 348 kts 190°
2026-05-08 06:10 41.65403 -112.03159 18820 ft 343 kts 191°
2026-05-08 06:10 41.63036 -112.03525 18400 ft 342 kts 191°
2026-05-08 06:11 41.60720 -112.03887 17996 ft 337 kts 191°
2026-05-08 06:11 41.58405 -112.04252 17577 ft 333 kts 191°
2026-05-08 06:11 41.56116 -112.04591 17183 ft 329 kts 189°
2026-05-08 06:11 41.53835 -112.04644 16830 ft 326 kts 182°
2026-05-08 06:12 41.51582 -112.04507 16461 ft 322 kts 181°
2026-05-08 06:12 41.49356 -112.04333 16095 ft 318 kts 181°
2026-05-08 06:12 41.47164 -112.04169 15670 ft 314 kts 181°
2026-05-08 06:12 41.45000 -112.04020 15307 ft 310 kts 182°
2026-05-08 06:13 41.42844 -112.03885 14961 ft 307 kts 183°
2026-05-08 06:13 41.40725 -112.03759 14619 ft 304 kts 183°
2026-05-08 06:13 41.38639 -112.03641 14283 ft 304 kts 183°
2026-05-08 06:13 41.36512 -112.03525 13923 ft 309 kts 184°
2026-05-08 06:14 41.34342 -112.03407 13530 ft 314 kts 183°
2026-05-08 06:14 41.32156 -112.03287 13141 ft 313 kts 183°
2026-05-08 06:14 41.29995 -112.03166 12764 ft 309 kts 183°
2026-05-08 06:14 41.27867 -112.03047 12408 ft 304 kts 183°
2026-05-08 06:15 41.25756 -112.02932 12041 ft 303 kts 182°
2026-05-08 06:15 41.23666 -112.02758 11841 ft 300 kts 180°
2026-05-08 06:15 41.21608 -112.02508 11661 ft 301 kts 179°
2026-05-08 06:15 41.19513 -112.02250 11551 ft 306 kts 179°
2026-05-08 06:16 41.17386 -112.01980 11329 ft 308 kts 179°
2026-05-08 06:16 41.15221 -112.01713 10824 ft 315 kts 178°
2026-05-08 06:16 41.13053 -112.01456 10423 ft 312 kts 178°
2026-05-08 06:16 41.10907 -112.01205 10044 ft 308 kts 178°
2026-05-08 06:17 41.06676 -112.00714 9195 ft 301 kts 177°
2026-05-08 06:17 41.04603 -112.00473 8802 ft 297 kts 177°
2026-05-08 06:17 41.02563 -112.00235 8403 ft 290 kts 177°
2026-05-08 06:18 41.00608 -112.00007 8029 ft 283 kts 176°
2026-05-08 06:18 40.98674 -111.99782 7677 ft 275 kts 176°
2026-05-08 06:18 40.96809 -111.99564 7328 ft 263 kts 176°
2026-05-08 06:18 40.95027 -111.99357 6965 ft 252 kts 176°
2026-05-08 06:19 40.93317 -111.99158 6698 ft 240 kts 176°
2026-05-08 06:19 40.91701 -111.98970 6449 ft 227 kts 175°
2026-05-08 06:19 40.90161 -111.98792 6194 ft 216 kts 174°
2026-05-08 06:19 40.88737 -111.98626 5915 ft 195 kts 174°
2026-05-08 06:20 40.87452 -111.98476 5639 ft 177 kts 174°
2026-05-08 06:20 40.86295 -111.98340 5377 ft 161 kts 176°
2026-05-08 06:20 40.85231 -111.98216 5168 ft 148 kts 175°
2026-05-08 06:20 40.84197 -111.98096 4985 ft 150 kts 175°
2026-05-08 06:21 40.83173 -111.97981 4748 ft 144 kts 174°
2026-05-08 06:21 40.82205 -111.97877 4570 ft 136 kts 174°
2026-05-08 06:21 40.81260 -111.97757 4348 ft 137 kts 173°
2026-05-08 06:21 40.80323 -111.97645 4240 ft 129 kts 172°
2026-05-08 06:22 40.79687 -111.97574 4228 ft 40 kts 175°
2026-05-08 06:22 40.79538 -111.97556 4228 ft 19 kts 174°
2026-05-08 06:22 40.79388 -111.97538 4228 ft 28 kts 175°
2026-05-08 06:22 40.79195 -111.97521 4231 ft 27 kts 174°
2026-05-08 06:23 40.79016 -111.97493 4230 ft 25 kts 175°
2026-05-08 06:23 40.78846 -111.97481 4232 ft 24 kts 170°
2026-05-08 06:23 40.78687 -111.97473 4230 ft 23 kts 183°
2026-05-08 06:23 40.78537 -111.97523 4230 ft 22 kts 201°
2026-05-08 06:24 40.78475 -111.97560 4229 ft 0 kts 205°
2026-05-08 06:25 40.78453 -111.97574 4229 ft 13 kts 205°
2026-05-08 06:25 40.78339 -111.97626 4229 ft 19 kts 187°
2026-05-08 06:25 40.78210 -111.97618 4230 ft 18 kts 175°
2026-05-08 06:26 40.78086 -111.97604 4229 ft 18 kts 175°
2026-05-08 06:26 40.77966 -111.97588 4252 ft 17 kts 169°
2026-05-08 06:26 40.77874 -111.97637 4251 ft 16 kts 248°
2026-05-08 06:26 40.77782 -111.97692 4252 ft 16 kts 176°
2026-05-08 06:27 40.77677 -111.97693 4252 ft 13 kts 203°
2026-05-08 06:27 40.77625 -111.97681 4252 ft 8 kts 163°
2026-05-08 06:27 40.77574 -111.97676 4252 ft 7 kts 181°
2026-05-08 06:27 40.77504 -111.97683 4252 ft 12 kts 182°
2026-05-08 06:28 40.77428 -111.97658 4251 ft 12 kts 130°
2026-05-08 06:28 40.77421 -111.97550 4252 ft 12 kts 86°
2026-05-08 06:28 40.77429 -111.97497 4252 ft 1 kts 75°
2026-05-08 06:28 40.77432 -111.97482 4252 ft 0 kts 73°
2026-05-08 06:30 40.77445 -111.97429 4252 ft 17 kts 69°
2026-05-08 06:30 40.77478 -111.97270 4252 ft 19 kts 107°
2026-05-08 06:31 40.77433 -111.97113 4252 ft 18 kts 108°
2026-05-08 06:31 40.77396 -111.96959 4252 ft 17 kts 108°
2026-05-08 06:31 40.77370 -111.96811 4252 ft 17 kts 78°
2026-05-08 06:31 40.77455 -111.96782 4252 ft 14 kts 348°
2026-05-08 06:32 40.77552 -111.96810 4251 ft 15 kts 347°
2026-05-08 06:32 40.77649 -111.96838 4251 ft 14 kts 348°
2026-05-08 06:32 40.77743 -111.96864 4251 ft 13 kts 348°
2026-05-08 06:32 40.77836 -111.96892 4251 ft 15 kts 347°
2026-05-08 06:33 40.77936 -111.96920 4251 ft 14 kts 348°
2026-05-08 06:33 40.78031 -111.96948 4251 ft 14 kts 347°
2026-05-08 06:33 40.78122 -111.96973 4252 ft 13 kts 348°
2026-05-08 06:33 40.78206 -111.97013 4230 ft 13 kts 328°
2026-05-08 06:34 40.78276 -111.97080 4229 ft 12 kts 323°
2026-05-08 06:34 40.78350 -111.97152 4230 ft 15 kts 323°
2026-05-08 06:34 40.78444 -111.97222 4230 ft 15 kts 341°
2026-05-08 06:34 40.78539 -111.97182 4230 ft 18 kts 83°
2026-05-08 06:35 40.78540 -111.97020 4229 ft 17 kts 83°
2026-05-08 06:35 40.78567 -111.96867 4230 ft 17 kts 77°
2026-05-08 06:35 40.78594 -111.96722 4230 ft 16 kts 76°
2026-05-08 06:35 40.78620 -111.96581 4230 ft 16 kts 77°
2026-05-08 06:36 40.78646 -111.96438 4230 ft 20 kts 77°
2026-05-08 06:36 40.78669 -111.96305 4230 ft 12 kts 78°
2026-05-08 06:36 40.78665 -111.96196 4231 ft 12 kts 108°
2026-05-08 06:36 40.78609 -111.96077 4230 ft 19 kts 127°
2026-05-08 06:37 40.78563 -111.95923 4230 ft 18 kts 92°
2026-05-08 06:37 40.78562 -111.95790 4230 ft 0 kts 90°